KAL539 RKSI-EDDF

Flight info

Callsign KAL539
Flight time N/A
Altitude 26000
Route BINIL3C BINIL Y697 AGAVO/K0880S0780 A591 IKEKA W4 HCH W200 DOVIV/K0909S0840 W55 PAMRU W34 VYK B215 LEBOM W104 VEXEB W47 IDSOT W48 DKO W66 NUKTI B215 FKG A368 SALMO/K0915S0920 A368 SARIN/K0915F300 N161 RELGE/K0913F320 N161 GASBI/N0492F320 N161 LEYLA N644 ADEKI DCT BADIR DCT LAGAS DCT FOQUS DCT SARPI UM10 GOKPA UL746 ODERO DCT OPT DCT TEGRI DCT ARSIN DCT SUBEN DCT AKINI T161 DEBHI DEBHI1B
Aircraft B77L/H-SDE1E2E3FGHIJ2J3J4J5M1RWXY/LB1D1

Departure

Time 2026-05-06 10:03
Airport Incheon International Airport (RKSI)

Arrival

Time N/A
Airport Frankfurt Main Airport (EDDF)
Time Latitude Longitude Altitude Speed Heading
2026-05-06 08:26 37.46751 126.47089 36 ft 0 kts 144°
2026-05-06 09:40 37.46764 126.47077 33 ft 3 kts 144°
2026-05-06 09:40 37.46783 126.47060 34 ft 3 kts 144°
2026-05-06 09:40 37.46818 126.47041 35 ft 3 kts 189°
2026-05-06 09:41 37.46835 126.47049 35 ft 3 kts 225°
2026-05-06 09:41 37.46849 126.47071 36 ft 3 kts 238°
2026-05-06 09:41 37.46861 126.47095 34 ft 2 kts 235°
2026-05-06 09:41 37.46862 126.47097 34 ft 0 kts 234°
2026-05-06 09:48 37.46858 126.47089 34 ft 3 kts 234°
2026-05-06 09:48 37.46840 126.47058 34 ft 6 kts 234°
2026-05-06 09:49 37.46808 126.47002 36 ft 9 kts 234°
2026-05-06 09:49 37.46763 126.46924 36 ft 13 kts 234°
2026-05-06 09:49 37.46707 126.46823 36 ft 15 kts 236°
2026-05-06 09:49 37.46646 126.46714 36 ft 15 kts 235°
2026-05-06 09:50 37.46586 126.46605 36 ft 15 kts 235°
2026-05-06 09:50 37.46526 126.46495 36 ft 15 kts 235°
2026-05-06 09:50 37.46466 126.46386 36 ft 15 kts 234°
2026-05-06 09:50 37.46394 126.46289 35 ft 15 kts 221°
2026-05-06 09:51 37.46330 126.46191 36 ft 15 kts 273°
2026-05-06 09:51 37.46402 126.46096 36 ft 15 kts 323°
2026-05-06 09:51 37.46489 126.46018 36 ft 15 kts 324°
2026-05-06 09:51 37.46575 126.45941 36 ft 15 kts 324°
2026-05-06 09:52 37.46662 126.45864 36 ft 15 kts 324°
2026-05-06 09:52 37.46749 126.45787 36 ft 15 kts 325°
2026-05-06 09:52 37.46836 126.45709 36 ft 15 kts 324°
2026-05-06 09:52 37.46923 126.45632 36 ft 15 kts 324°
2026-05-06 09:53 37.47009 126.45555 36 ft 15 kts 324°
2026-05-06 09:53 37.47096 126.45478 36 ft 15 kts 325°
2026-05-06 09:53 37.47183 126.45401 36 ft 15 kts 324°
2026-05-06 09:53 37.47269 126.45323 36 ft 15 kts 324°
2026-05-06 09:54 37.47355 126.45247 36 ft 15 kts 324°
2026-05-06 09:54 37.47442 126.45170 36 ft 15 kts 325°
2026-05-06 09:54 37.47528 126.45093 36 ft 15 kts 324°
2026-05-06 09:54 37.47615 126.45015 36 ft 15 kts 324°
2026-05-06 09:55 37.47702 126.44938 36 ft 15 kts 324°
2026-05-06 09:55 37.47788 126.44861 36 ft 15 kts 324°
2026-05-06 09:55 37.47875 126.44784 36 ft 15 kts 324°
2026-05-06 09:55 37.47962 126.44707 36 ft 15 kts 325°
2026-05-06 09:56 37.48019 126.44656 36 ft 15 kts 324°
2026-05-06 09:56 37.48106 126.44578 36 ft 15 kts 325°
2026-05-06 09:56 37.48192 126.44501 36 ft 15 kts 324°
2026-05-06 09:56 37.48279 126.44424 36 ft 15 kts 324°
2026-05-06 09:57 37.48366 126.44347 36 ft 15 kts 324°
2026-05-06 09:57 37.48452 126.44269 34 ft 15 kts 320°
2026-05-06 09:57 37.48459 126.44186 34 ft 8 kts 243°
2026-05-06 09:57 37.48445 126.44157 35 ft 0 kts 238°
2026-05-06 10:00 37.48444 126.44156 35 ft 1 kts 238°
2026-05-06 10:01 37.48436 126.44139 34 ft 4 kts 237°
2026-05-06 10:01 37.48416 126.44102 34 ft 6 kts 235°
2026-05-06 10:01 37.48384 126.44055 33 ft 8 kts 212°
2026-05-06 10:01 37.48334 126.44069 34 ft 8 kts 147°
2026-05-06 10:02 37.48316 126.44084 35 ft 0 kts 144°
2026-05-06 10:02 37.48315 126.44085 35 ft 2 kts 144°
2026-05-06 10:02 37.48222 126.44169 36 ft 41 kts 144°
2026-05-06 10:03 37.47783 126.44558 36 ft 112 kts 144°
2026-05-06 10:03 37.46961 126.45288 37 ft 175 kts 144°
2026-05-06 10:03 37.45878 126.46263 268 ft 195 kts 148°
2026-05-06 10:03 37.44787 126.47307 715 ft 204 kts 134°
2026-05-06 10:04 37.43899 126.48760 1115 ft 210 kts 133°
2026-05-06 10:04 37.42962 126.50192 1722 ft 211 kts 137°
2026-05-06 10:04 37.41975 126.51629 1908 ft 230 kts 137°
2026-05-06 10:04 37.40893 126.53186 2184 ft 243 kts 137°
2026-05-06 10:05 37.39755 126.54819 2582 ft 252 kts 136°
2026-05-06 10:05 37.38578 126.56504 2975 ft 264 kts 135°
2026-05-06 10:05 37.37299 126.58205 3302 ft 270 kts 148°
2026-05-06 10:05 37.35640 126.59244 3750 ft 267 kts 165°
2026-05-06 10:06 37.33855 126.59987 4270 ft 274 kts 165°
2026-05-06 10:06 37.32044 126.60760 4908 ft 276 kts 165°
2026-05-06 10:06 37.30186 126.61557 5289 ft 290 kts 164°
2026-05-06 10:06 37.28232 126.62261 5664 ft 295 kts 178°
2026-05-06 10:07 37.26209 126.61913 6128 ft 296 kts 205°
2026-05-06 10:07 37.24442 126.60598 6688 ft 296 kts 217°
2026-05-06 10:07 37.22745 126.59079 7239 ft 302 kts 217°
2026-05-06 10:07 37.21031 126.57542 7899 ft 304 kts 217°
2026-05-06 10:08 37.19301 126.55994 8522 ft 307 kts 217°
2026-05-06 10:08 37.17551 126.54436 9134 ft 311 kts 217°
2026-05-06 10:08 37.15848 126.52930 9736 ft 313 kts 217°
2026-05-06 10:08 37.14029 126.51325 10007 ft 319 kts 217°
2026-05-06 10:09 37.12257 126.49671 9981 ft 315 kts 227°
2026-05-06 10:09 37.11046 126.47389 10213 ft 322 kts 249°
2026-05-06 10:09 37.10479 126.44647 10319 ft 339 kts 265°
2026-05-06 10:09 37.10431 126.41629 10593 ft 352 kts 270°
2026-05-06 10:10 37.10457 126.38525 11059 ft 360 kts 270°
2026-05-06 10:10 37.10461 126.35372 11610 ft 364 kts 269°
2026-05-06 10:10 37.10446 126.32195 12269 ft 365 kts 269°
2026-05-06 10:10 37.10423 126.29005 12906 ft 368 kts 268°
2026-05-06 10:11 37.10396 126.25790 13488 ft 371 kts 268°
2026-05-06 10:11 37.10367 126.22536 14020 ft 375 kts 268°
2026-05-06 10:11 37.10338 126.19265 14551 ft 377 kts 268°
2026-05-06 10:11 37.10309 126.15969 15110 ft 379 kts 268°
2026-05-06 10:12 37.10277 126.12667 15652 ft 381 kts 268°
2026-05-06 10:12 37.10440 126.09356 16061 ft 385 kts 281°
2026-05-06 10:12 37.11359 126.06191 16474 ft 389 kts 292°
2026-05-06 10:12 37.12494 126.03092 16913 ft 393 kts 292°
2026-05-06 10:13 37.13615 125.99952 17445 ft 395 kts 291°
2026-05-06 10:13 37.14721 125.96795 17967 ft 397 kts 291°
2026-05-06 10:13 37.15827 125.93604 17997 ft 400 kts 291°
2026-05-06 10:13 37.16923 125.90416 18011 ft 398 kts 291°
2026-05-06 10:14 37.18016 125.87232 18005 ft 397 kts 291°
2026-05-06 10:14 37.19105 125.84052 18010 ft 397 kts 291°
2026-05-06 10:14 37.20196 125.80865 18038 ft 399 kts 291°
2026-05-06 10:14 37.21295 125.77651 18467 ft 402 kts 291°
2026-05-06 10:15 37.22395 125.74432 18974 ft 402 kts 291°
2026-05-06 10:15 37.23497 125.71203 19462 ft 403 kts 291°
2026-05-06 10:15 37.24601 125.67962 19903 ft 405 kts 291°
2026-05-06 10:15 37.25712 125.64698 20325 ft 408 kts 291°
2026-05-06 10:16 37.26829 125.61415 20747 ft 410 kts 291°
2026-05-06 10:16 37.27938 125.58151 21151 ft 413 kts 291°
2026-05-06 10:16 37.29066 125.54827 21576 ft 415 kts 291°
2026-05-06 10:16 37.30198 125.51487 21997 ft 417 kts 291°
2026-05-06 10:17 37.31336 125.48125 22414 ft 419 kts 291°
2026-05-06 10:17 37.32480 125.44741 22796 ft 422 kts 291°
2026-05-06 10:17 37.33629 125.41342 23195 ft 424 kts 291°
2026-05-06 10:17 37.34783 125.37919 23600 ft 426 kts 291°
2026-05-06 10:18 37.35943 125.34479 23933 ft 428 kts 291°
2026-05-06 10:18 37.37108 125.31020 24258 ft 431 kts 291°
2026-05-06 10:18 37.38274 125.27550 24606 ft 432 kts 291°
2026-05-06 10:18 37.39371 125.24038 24910 ft 432 kts 284°
2026-05-06 10:19 37.39816 125.20314 25135 ft 432 kts 268°
2026-05-06 10:19 37.39670 125.16531 25352 ft 435 kts 267°
2026-05-06 10:19 37.39544 125.12714 25651 ft 438 kts 268°
2026-05-06 10:19 37.39455 125.08883 25913 ft 441 kts 269°
2026-05-06 10:20 37.39383 125.05016 25934 ft 443 kts 269°
2026-05-06 10:20 37.39317 125.01119 25972 ft 448 kts 269°
2026-05-06 10:20 37.39250 124.97174 25978 ft 454 kts 269°
2026-05-06 10:20 37.39180 124.93183 25981 ft 460 kts 269°
2026-05-06 10:21 37.39106 124.89143 25977 ft 465 kts 269°
2026-05-06 10:21 37.39029 124.85058 25983 ft 469 kts 269°
2026-05-06 10:21 37.38949 124.80951 25973 ft 469 kts 269°
2026-05-06 10:21 37.38866 124.76857 25960 ft 468 kts 269°
2026-05-06 10:22 37.38780 124.72768 25968 ft 467 kts 268°
2026-05-06 10:22 37.38692 124.68689 25959 ft 466 kts 268°
2026-05-06 10:22 37.38605 124.64617 25957 ft 466 kts 268°
2026-05-06 10:22 37.38519 124.60544 25961 ft 466 kts 268°
2026-05-06 10:23 37.38431 124.56477 25962 ft 466 kts 268°
2026-05-06 10:23 37.38343 124.52465 25958 ft 466 kts 268°
2026-05-06 10:23 37.38240 124.48398 25952 ft 465 kts 266°
2026-05-06 10:23 37.37786 124.44375 25951 ft 466 kts 257°
2026-05-06 10:24 37.36848 124.40469 25961 ft 467 kts 251°
2026-05-06 10:24 37.35571 124.36706 25955 ft 469 kts 244°
2026-05-06 10:24 37.33888 124.33176 25955 ft 471 kts 239°
2026-05-06 10:24 37.32091 124.29728 25951 ft 472 kts 239°
2026-05-06 10:25 37.30295 124.26277 25952 ft 473 kts 239°
2026-05-06 10:25 37.28514 124.22809 25948 ft 473 kts 239°
2026-05-06 10:25 37.26743 124.19320 25949 ft 474 kts 239°
2026-05-06 10:25 37.24980 124.15832 25949 ft 474 kts 239°
2026-05-06 10:26 37.23211 124.12340 25951 ft 474 kts 239°
2026-05-06 10:26 37.21402 124.08872 25948 ft 475 kts 238°
2026-05-06 10:26 37.19571 124.05423 25948 ft 475 kts 238°
2026-05-06 10:26 37.17740 124.01974 25945 ft 475 kts 238°
2026-05-06 10:27 37.15917 123.98519 25890 ft 473 kts 238°
2026-05-06 10:27 37.14130 123.95081 25643 ft 470 kts 239°
2026-05-06 10:27 37.12362 123.91649 25608 ft 468 kts 239°
2026-05-06 10:27 37.10599 123.88218 25562 ft 470 kts 239°
2026-05-06 10:28 37.08845 123.84810 25557 ft 472 kts 239°
2026-05-06 10:28 37.07057 123.81346 25551 ft 474 kts 239°
2026-05-06 10:28 37.05264 123.77883 25540 ft 474 kts 239°
2026-05-06 10:28 37.03470 123.74423 25540 ft 474 kts 239°
2026-05-06 10:29 37.01672 123.70961 25545 ft 474 kts 239°
2026-05-06 10:29 36.99876 123.67509 25445 ft 470 kts 239°
2026-05-06 10:29 36.98136 123.64173 25557 ft 452 kts 239°
2026-05-06 10:29 36.96422 123.60888 25544 ft 449 kts 239°
2026-05-06 10:30 36.94711 123.57605 25538 ft 451 kts 239°
2026-05-06 10:30 36.92998 123.54314 25538 ft 452 kts 239°
2026-05-06 10:30 36.91278 123.51018 25543 ft 453 kts 239°
2026-05-06 10:30 36.89554 123.47715 25540 ft 454 kts 239°
2026-05-06 10:31 36.87824 123.44409 25540 ft 455 kts 239°
2026-05-06 10:31 36.86101 123.41098 25537 ft 452 kts 242°
2026-05-06 10:31 36.84847 123.37538 25539 ft 448 kts 256°
2026-05-06 10:31 36.84369 123.33702 25543 ft 449 kts 266°
2026-05-06 10:32 36.84442 123.29811 25536 ft 451 kts 276°
2026-05-06 10:32 36.85181 123.26011 25550 ft 451 kts 284°
2026-05-06 10:32 36.86132 123.22270 25537 ft 453 kts 285°
2026-05-06 10:32 36.87096 123.18515 25536 ft 454 kts 285°
2026-05-06 10:33 36.88048 123.14750 25538 ft 455 kts 284°
2026-05-06 10:33 36.88985 123.10974 25536 ft 456 kts 284°
2026-05-06 10:33 36.89911 123.07184 25535 ft 456 kts 284°
2026-05-06 10:33 36.90827 123.03396 25530 ft 456 kts 284°
2026-05-06 10:34 36.91737 122.99608 25530 ft 455 kts 284°
2026-05-06 10:34 36.92643 122.95823 25527 ft 454 kts 284°
2026-05-06 10:34 36.93546 122.92044 25529 ft 453 kts 284°
2026-05-06 10:34 36.94433 122.88325 25522 ft 452 kts 284°
2026-05-06 10:35 36.95330 122.84560 25525 ft 451 kts 283°
2026-05-06 10:35 36.96223 122.80804 25522 ft 450 kts 283°
2026-05-06 10:35 36.97115 122.77051 25523 ft 450 kts 283°
2026-05-06 10:35 36.98005 122.73304 25526 ft 450 kts 283°
2026-05-06 10:36 36.98894 122.69554 25524 ft 449 kts 283°
2026-05-06 10:36 36.99779 122.65811 25522 ft 449 kts 283°
2026-05-06 10:36 37.00663 122.62067 25521 ft 449 kts 283°
2026-05-06 10:36 37.01547 122.58317 25514 ft 449 kts 283°
2026-05-06 10:37 37.02429 122.54573 25522 ft 449 kts 283°
2026-05-06 10:37 37.03311 122.50826 25513 ft 449 kts 283°
2026-05-06 10:37 37.04193 122.47082 25521 ft 448 kts 283°
2026-05-06 10:37 37.05071 122.43339 25520 ft 448 kts 283°
2026-05-06 10:38 37.05947 122.39601 25511 ft 446 kts 284°
2026-05-06 10:38 37.07110 122.35981 25508 ft 452 kts 295°
2026-05-06 10:38 37.08820 122.32661 25527 ft 457 kts 302°
2026-05-06 10:38 37.10874 122.29598 25507 ft 463 kts 309°
2026-05-06 10:39 37.13338 122.26942 25512 ft 470 kts 318°
2026-05-06 10:39 37.15854 122.24393 25502 ft 462 kts 309°
2026-05-06 10:39 37.17881 122.21387 25508 ft 455 kts 300°
2026-05-06 10:39 37.19495 122.18002 25509 ft 451 kts 292°
2026-05-06 10:40 37.20641 122.14379 25502 ft 445 kts 284°
2026-05-06 10:40 37.21553 122.10661 25502 ft 446 kts 284°
2026-05-06 10:40 37.22482 122.06936 25503 ft 448 kts 284°
2026-05-06 10:40 37.23424 122.03213 25498 ft 448 kts 284°
2026-05-06 10:41 37.24055 122.00746 25502 ft 449 kts 284°